Showing default

ATHENA, 46275

Orbit data source: Space-Track

ATHENA, 46275 is a payload satellite owned by PointView Tech (US) in SSO that was launched on Thu, 03 Sep 2020 UTC via a VEGA launch vehicle from the French Guiana (FRGUI). Payload-class satellites include a variety of spacecraft equipped with specific instruments for various scientific and technological missions. These include communications satellites like Starlink; space stations such as the ISS; scientific satellites like the Hubble; Earth observation satellites from companies like Planet Labs, Umbra, and HawkEye 360; GPS; miniature CubeSats for education and research; and military/defense satellites.

Loading next visibility...
Identifier
46275, 2020-061D
Orbit
SSO
Country
Flag of USUS
Related business
Manufacturer
MAXSS/SFLIN
Mission
Operational Commercial Communications
Bus & Motor
SSL-100, Unknown motor
Mass
138 kg wet, 138 kg dry
Launch date (UTC)
2020-09-03 (6 years ago)
Launch vehicle
VEGA
Launch site
French Guiana (FRGUI)
Object type
Payload
Rocket body
Debris
Shape & HBR
Box, Unknown HBR
Radar Cross Section
0.625 m², Medium (>0.1 m² and < 1m²)

Expand to show TLE details & history
Last TLE update: 11 hours ago

TLE from 11 hours ago
0 ATHENA
1 46275U 20061D   26166.12306798  .00013526  00000-0  25173-3 0  9998
2 46275  97.1914 230.4591 0001939  86.4920 273.6553 15.48978397321831
Epoch: 2026-06-15T02:57Z
TLE epoch observation values (Epoch: 2026-06-15T02:57:13.073Z)
Latitude
-0.00004°
Longitude
-77.25934°
Altitude
422.765 km
Speed
7.658 km/s
True Right ascension
15h 21m 50s
True Declination
0° 00' 00"
Sunlit
Object was in full shadow at epoch
Visualization orbit readout
Latitude
Unknown
Longitude
Unknown
Altitude
Unknown
Speed
Unknown
Apparent Right ascension
Unknown
Apparent Declination
Unknown
Sunlit
N/A
Visualization observer readout
Local Sidereal Time
00:02:51
Azimuth
Unknown
Elevation
Unknown
Doppler factor
Unknown
Orbital elements
Apogee altitude
417.949 km
Perigee altitude
415.314 km
Semi-major axis
6,794.769 km
Eccentricity
0.00019
Inclination
97.1914°
RAAN
230.4591°
Arg. of periapsis
86.492°
True anomaly
273.63313°
Mean anomaly
273.6553°
Eccentric anomaly
273.64421°
Mean motion
3.87508 °/min
Orbital period
92.9 mins
BSTAR
0.00025173
Loading maneuver chart data...
Computing Atmospheric mass density...

Documentation

Showing up to 5 results
|